#timestamp,LO_Frequency,Hit,StdDev 
1657926015.1,286046998.3,N
1657926016.0,286046998.3,N
1657926035.8,286047001.2,N
1657926055.6,286046998.1,N
1657926075.5,286047000.0,N
1657926095.3,286046999.7,N
1657926115.2,286047000.2,N
1657926135.9,286047002.6,N
1657926155.7,286047001.2,N
1657926175.6,286047000.0,N
1657926195.4,286046999.8,N
1657926215.2,286047000.2,N
1657926235.1,286047001.7,N
1657926236.0,286047001.7,N
1657926255.8,286047003.3,N
1657926275.7,286047002.9,N
1657926295.5,286047004.5,N
1657926315.3,286047007.1,Y
1657926335.2,286047005.3,P
1657926355.0,286047003.9,N
1657926355.9,286047003.9,N
1657926375.7,286047004.4,N
1657926395.6,286047003.9,N
1657926415.4,286047002.1,N
1657926435.3,286047002.4,N
1657926455.1,286047001.5,N
1657926456.0,286047001.5,N
1657926475.8,286047002.7,N
1657926495.7,286047002.6,N
1657926515.5,286046998.5,N
1657926535.3,286047001.2,N
1657926555.2,286047001.0,N
1657926575.0,286047000.2,N
1657926575.9,286047000.2,N
1657926595.8,286047000.1,N
1657926615.6,286047001.3,N
1657926635.4,286047002.1,N
1657926655.3,286046999.3,N
1657926675.1,286046997.6,N
1657926695.9,286046994.9,N
1657926715.7,286046997.7,N
1657926735.5,286046998.9,N
1657926755.4,286046998.9,N
1657926775.2,286046998.5,N
1657926795.0,286046999.1,N
1657926795.9,286046999.1,N
1657926815.8,286047000.3,N
1657926835.6,286046998.3,N
1657926855.5,286046999.0,N
1657926875.3,286046999.2,N
1657926895.1,286046998.3,N
1657926915.9,286047000.0,N
1657926935.7,286046999.9,N
1657926955.5,286046998.4,N
1657926975.4,286046998.4,N
1657926995.2,286047000.3,N
1657927015.1,286047000.7,N
1657927016.0,286047000.7,N
1657927035.8,286046998.8,N
1657927055.6,286047000.4,N
1657927075.5,286047002.1,N
1657927095.3,286047002.4,N
1657927115.1,286046999.7,N
1657927135.9,286047000.1,N
1657927155.7,286047000.7,N
1657927175.6,286047000.9,N
1657927195.4,286047002.6,N
1657927215.2,286047001.5,N
1657927235.1,286047003.4,N
1657927236.0,286047003.4,N
1657927255.8,286047003.4,N
1657927275.6,286047001.5,N
1657927295.5,286047002.6,N
1657927315.3,286047002.4,N
1657927335.2,286047002.4,N
1657927355.9,286046999.9,N
1657927375.7,286047003.5,N
1657927395.6,286047002.3,N
1657927415.4,286047002.6,N
1657927435.2,286047001.5,N
1657927455.1,286047002.3,N
1657927456.0,286047002.3,N
1657927475.8,286047002.6,N
1657927495.7,286047000.7,N
1657927515.5,286047000.5,N
1657927535.3,286046998.5,N
1657927555.2,286046999.6,N
1657927575.9,286047000.9,N
1657927595.7,286046997.0,N
1657927615.6,286046997.7,N
1657927635.4,286046997.7,N
1657927655.3,286046996.6,N
1657927675.1,286046999.2,N
1657927676.0,286046999.2,N
1657927695.8,286046996.9,N
1657927715.7,286046998.0,N
1657927735.5,286046997.4,N
1657927755.3,286046997.0,N
1657927775.2,286046997.4,N
1657927795.0,286046999.6,N
1657927795.9,286046999.6,N
1657927815.8,286046996.5,N
1657927835.6,286046999.5,N
1657927855.4,286047002.6,N
1657927875.3,286046999.9,N
1657927895.1,286047003.6,N
1657927915.8,286047000.6,N
1657927935.7,286047002.1,N
1657927955.5,286047000.5,N
1657927975.4,286046999.4,N
1657927995.2,286046998.4,N
1657928015.0,286047001.0,N
1657928015.9,286047001.0,N
1657928035.8,286046999.8,N
1657928055.6,286047000.4,N
1657928075.4,286047000.2,N
1657928095.3,286047002.8,N
1657928115.1,286047002.2,N
1657928135.9,286047000.4,N
1657928155.7,286047003.9,N
1657928175.5,286047001.7,N
1657928195.4,286047003.3,N
1657928215.2,286047001.7,N
1657928235.0,286047001.2,N
1657928235.9,286047001.2,N
1657928255.8,286047000.5,N
1657928275.6,286047002.8,N
1657928295.5,286047002.5,N
1657928315.3,286047004.3,N
1657928335.1,286047002.2,N
1657928355.9,286047000.4,N
1657928375.7,286047001.2,N
1657928395.6,286047001.0,N
1657928415.4,286047002.2,N
1657928435.2,286047002.4,N
1657928455.1,286046998.2,N
1657928456.0,286046998.2,N
1657928475.8,286047000.7,N
1657928495.6,286046998.6,N
1657928515.5,286047000.5,N
1657928535.3,286047002.4,N
1657928555.2,286047002.8,N
1657928575.9,286047001.0,N
1657928595.7,286046999.0,N
1657928615.6,286047001.0,N
1657928635.4,286047004.0,N
1657928655.2,286047001.9,N
1657928675.1,286047002.3,N
1657928676.0,286047002.3,N
1657928695.8,286047001.7,N
1657928715.7,286047001.6,N
1657928735.5,286047001.4,N
1657928755.3,286047003.9,N
1657928775.2,286047002.8,N
1657928795.0,286047000.1,N
1657928795.9,286047000.1,N
1657928815.8,286047000.2,N
1657928835.6,286047000.9,N
1657928855.4,286047001.3,N
1657928875.3,286047002.0,N
1657928895.1,286047002.1,N
1657928915.8,286047002.2,N
1657928935.7,286047003.1,N
1657928955.5,286047001.9,N
1657928975.4,286047001.6,N
1657928995.2,286047000.0,N
1657929015.0,286047003.7,N
1657929015.9,286047003.7,N
1657929035.8,286047004.1,Y
1657929055.6,286047000.5,P
1657929075.4,286047000.5,N
1657929095.3,286046999.8,N
1657929115.1,286047000.9,N
1657929135.9,286046998.1,Y
1657929155.7,286046998.7,P
1657929175.5,286046998.8,N
1657929195.4,286047000.7,N
1657929215.2,286046998.7,N
1657929235.1,286046997.2,N
1657929236.0,286046997.2,N
1657929255.8,286046997.8,N
1657929275.6,286046999.6,N
1657929295.5,286047000.3,N
1657929315.3,286046998.9,N
1657929335.1,286046998.6,N
1657929355.9,286046999.2,N
1657929375.7,286046996.9,N
1657929395.6,286046996.5,N
1657929415.4,286046996.5,N
1657929435.2,286047001.2,N
1657929455.1,286047002.5,N
1657929456.0,286047002.5,N
1657929475.8,286047002.2,N
1657929495.6,286047004.3,N
1657929515.5,286047001.1,N
1657929535.3,286047000.5,N
1657929555.2,286047000.3,N
1657929575.9,286047002.3,N
1657929595.7,286047002.0,N
